When you browse on this site, cookies collect data to enhance your experience and personalize the content and advertising you see.
Visit our Privacy Policy to learn more. By continuing to use the site, you agree to this use of cookies and data.
  • In Österreich
  • Länderverzeichnis
  • Für 7 Tage
  • Wassertemperatur
  • Wetterkarte
  • News
  • Widgets
  • user-avatar
    Anmelden

    Stündliche Wetter Coro

    Heute, 28 Januar, Dienstag

    Zeit Temperatur Niederschläge Wind Luftdruck Luftfeuchtigkeit
    00:00 +26°C° 0 mm 3 m/S 757 mmHg 94%
    01:00 +25°C° 0 mm 3 m/S 757 mmHg 94%
    02:00 +25°C° 0 mm 3 m/S 756 mmHg 94%
    03:00 +25°C° 0 mm 3 m/S 756 mmHg 94%
    04:00 +25°C° 0 mm 3 m/S 756 mmHg 94%
    05:00 +25°C° 0 mm 3 m/S 756 mmHg 93%
    06:00 +25°C° 0 mm 3 m/S 756 mmHg 91%
    07:00 +26°C° 0 mm 3 m/S 757 mmHg 89%
    08:00 +28°C° 0 mm 3 m/S 757 mmHg 79%
    09:00 +30°C° 0 mm 4 m/S 757 mmHg 69%
    10:00 +33°C° 0 mm 4 m/S 758 mmHg 59%
    11:00 +34°C° 0 mm 5 m/S 757 mmHg 55%
    12:00 +35°C° 0 mm 6 m/S 756 mmHg 51%
    13:00 +36°C° 0 mm 6 m/S 755 mmHg 47%
    14:00 +35°C° 0 mm 6 m/S 755 mmHg 51%
    15:00 +34°C° 0 mm 6 m/S 754 mmHg 56%
    16:00 +33°C° 0 mm 6 m/S 754 mmHg 60%
    17:00 +30°C° 0 mm 6 m/S 754 mmHg 69%
    18:00 +28°C° 0 mm 5 m/S 755 mmHg 78%
    19:00 +26°C° 0 mm 4 m/S 755 mmHg 86%
    20:00 +26°C° 0 mm 4 m/S 756 mmHg 88%
    21:00 +26°C° 0 mm 4 m/S 756 mmHg 89%
    22:00 +25°C° 0 mm 4 m/S 756 mmHg 91%
    23:00 +25°C° 0 mm 4 m/S 756 mmHg 92%

    Morgen, 29 Januar, Mittwoch

    Zeit Temperatur Niederschläge Wind Luftdruck Luftfeuchtigkeit
    00:00 +25°C° 0 mm 4 m/S 756 mmHg 93%
    01:00 +25°C° 0 mm 4 m/S 755 mmHg 93%
    02:00 +23°C° 0 mm 4 m/S 755 mmHg 93%
    03:00 +24°C° 0 mm 3 m/S 755 mmHg 92%
    04:00 +24°C° 0 mm 3 m/S 755 mmHg 92%
    05:00 +25°C° 0 mm 3 m/S 756 mmHg 89%
    06:00 +25°C° 0 mm 3 m/S 756 mmHg 87%
    07:00 +26°C° 0 mm 3 m/S 757 mmHg 84%
    08:00 +28°C° 0 mm 3 m/S 757 mmHg 75%
    09:00 +30°C° 0 mm 3 m/S 758 mmHg 66%
    10:00 +32°C° 0 mm 4 m/S 758 mmHg 58%
    11:00 +33°C° 0 mm 5 m/S 757 mmHg 53%
    12:00 +34°C° 0 mm 5 m/S 756 mmHg 49%
    13:00 +36°C° 0 mm 6 m/S 756 mmHg 44%
    14:00 +35°C° 0 mm 6 m/S 755 mmHg 48%
    15:00 +34°C° 0 mm 6 m/S 755 mmHg 51%
    16:00 +33°C° 0 mm 7 m/S 754 mmHg 55%
    17:00 +30°C° 0 mm 6 m/S 755 mmHg 67%
    18:00 +28°C° 0 mm 5 m/S 755 mmHg 78%
    19:00 +26°C° 0 mm 5 m/S 756 mmHg 90%
    20:00 +25°C° 0 mm 5 m/S 756 mmHg 91%
    21:00 +25°C° 0 mm 5 m/S 756 mmHg 92%
    22:00 +25°C° 0 mm 4 m/S 757 mmHg 94%
    23:00 +25°C° 0 mm 4 m/S 756 mmHg 95%

    übermorgen, 30 Januar, Donnerstag

    Zeit Temperatur Niederschläge Wind Luftdruck Luftfeuchtigkeit
    00:00 +25°C° 0 mm 3 m/S 756 mmHg 95%
    01:00 +24°C° 0 mm 3 m/S 756 mmHg 96%
    02:00 +24°C° 0.1 mm 3 m/S 756 mmHg 96%
    03:00 +24°C° 0.1 mm 3 m/S 756 mmHg 96%
    04:00 +24°C° 0.1 mm 3 m/S 755 mmHg 96%
    05:00 +25°C° 0.1 mm 3 m/S 756 mmHg 95%
    06:00 +25°C° 0.1 mm 3 m/S 757 mmHg 93%
    07:00 +26°C° 0.1 mm 3 m/S 757 mmHg 91%
    08:00 +28°C° 0 mm 3 m/S 757 mmHg 80%
    09:00 +30°C° 0 mm 4 m/S 757 mmHg 69%
    10:00 +33°C° 0 mm 4 m/S 758 mmHg 58%
    11:00 +34°C° 0 mm 5 m/S 757 mmHg 55%
    12:00 +35°C° 0 mm 6 m/S 756 mmHg 51%
    13:00 +36°C° 0 mm 6 m/S 755 mmHg 48%
    14:00 +35°C° 0 mm 7 m/S 755 mmHg 53%
    15:00 +34°C° 0 mm 7 m/S 755 mmHg 59%
    16:00 +33°C° 0 mm 7 m/S 754 mmHg 64%
    17:00 +30°C° 0 mm 7 m/S 755 mmHg 73%
    18:00 +28°C° 0 mm 6 m/S 755 mmHg 82%
    19:00 +27°C° 0 mm 5 m/S 756 mmHg 90%
    20:00 +26°C° 0 mm 5 m/S 756 mmHg 91%
    21:00 +26°C° 0 mm 5 m/S 756 mmHg 93%
    22:00 +26°C° 0 mm 5 m/S 756 mmHg 94%
    23:00 +26°C° 0 mm 4 m/S 756 mmHg 95%

    31 Januar, Freitag

    Zeit Temperatur Niederschläge Wind Luftdruck Luftfeuchtigkeit
    00:00 +25°C° 0 mm 4 m/S 756 mmHg 95%
    01:00 +25°C° 0 mm 3 m/S 756 mmHg 96%
    02:00 +25°C° 0 mm 3 m/S 755 mmHg 96%
    03:00 +25°C° 0 mm 3 m/S 755 mmHg 96%
    04:00 +25°C° 0 mm 4 m/S 755 mmHg 96%
    05:00 +26°C° 0 mm 4 m/S 756 mmHg 93%
    06:00 +26°C° 0 mm 4 m/S 756 mmHg 91%
    07:00 +27°C° 0 mm 4 m/S 757 mmHg 89%
    08:00 +28°C° 0 mm 5 m/S 757 mmHg 81%
    09:00 +30°C° 0 mm 5 m/S 757 mmHg 73%
    10:00 +33°C° 0 mm 5 m/S 757 mmHg 64%
    11:00 +34°C° 0 mm 6 m/S 757 mmHg 60%
    12:00 +35°C° 0 mm 7 m/S 756 mmHg 55%
    13:00 +37°C° 0 mm 8 m/S 755 mmHg 51%
    14:00 +35°C° 0 mm 8 m/S 755 mmHg 55%
    15:00 +34°C° 0 mm 8 m/S 755 mmHg 60%
    16:00 +33°C° 0 mm 8 m/S 754 mmHg 64%
    17:00 +31°C° 0 mm 8 m/S 755 mmHg 72%
    18:00 +28°C° 0 mm 7 m/S 755 mmHg 79%
    19:00 +27°C° 0 mm 7 m/S 756 mmHg 86%
    20:00 +26°C° 0 mm 7 m/S 756 mmHg 87%
    21:00 +26°C° 0 mm 6 m/S 756 mmHg 88%
    22:00 +26°C° 0 mm 6 m/S 757 mmHg 89%
    23:00 +26°C° 0 mm 6 m/S 757 mmHg 90%

    1 Februar, Samstag

    Zeit Temperatur Niederschläge Wind Luftdruck Luftfeuchtigkeit
    00:00 +26°C° 0 mm 6 m/S 756 mmHg 90%
    01:00 +26°C° 0 mm 6 m/S 756 mmHg 91%
    02:00 +26°C° 0 mm 6 m/S 756 mmHg 92%
    03:00 +24°C° 0 mm 6 m/S 756 mmHg 92%
    04:00 +24°C° 0 mm 6 m/S 756 mmHg 93%
    05:00 +26°C° 0 mm 6 m/S 756 mmHg 91%
    06:00 +26°C° 0 mm 6 m/S 757 mmHg 89%
    07:00 +26°C° 0 mm 6 m/S 757 mmHg 87%
    08:00 +28°C° 0 mm 6 m/S 758 mmHg 79%
    09:00 +29°C° 0 mm 6 m/S 758 mmHg 71%
    10:00 +32°C° 0 mm 6 m/S 758 mmHg 64%
    11:00 +33°C° 0 mm 7 m/S 757 mmHg 59%
    12:00 +34°C° 0 mm 7 m/S 757 mmHg 54%
    13:00 +35°C° 0 mm 7 m/S 756 mmHg 49%
    14:00 +35°C° 0 mm 7 m/S 756 mmHg 50%
    15:00 +34°C° 0 mm 8 m/S 755 mmHg 52%
    16:00 +34°C° 0 mm 8 m/S 754 mmHg 53%
    17:00 +30°C° 0 mm 7 m/S 755 mmHg 65%
    18:00 +28°C° 0 mm 7 m/S 755 mmHg 77%
    19:00 +26°C° 0 mm 7 m/S 755 mmHg 89%
    20:00 +24°C° 0 mm 6 m/S 756 mmHg 91%
    21:00 +24°C° 0 mm 6 m/S 756 mmHg 93%
    22:00 +25°C° 0 mm 5 m/S 757 mmHg 94%
    23:00 +23°C° 0 mm 5 m/S 756 mmHg 95%

    2 Februar, Sonntag

    Zeit Temperatur Niederschläge Wind Luftdruck Luftfeuchtigkeit
    00:00 +23°C° 0 mm 4 m/S 756 mmHg 95%
    01:00 +23°C° 0 mm 4 m/S 756 mmHg 95%
    02:00 +23°C° 0 mm 4 m/S 756 mmHg 95%
    03:00 +22°C° 0 mm 4 m/S 756 mmHg 95%
    04:00 +22°C° 0 mm 4 m/S 756 mmHg 95%
    05:00 +23°C° 0 mm 4 m/S 756 mmHg 93%
    06:00 +23°C° 0 mm 4 m/S 757 mmHg 91%
    07:00 +25°C° 0 mm 4 m/S 757 mmHg 89%
    08:00 +27°C° 0 mm 4 m/S 757 mmHg 79%
    09:00 +29°C° 0 mm 4 m/S 758 mmHg 69%
    10:00 +32°C° 0 mm 5 m/S 758 mmHg 59%
    11:00 +33°C° 0 mm 5 m/S 757 mmHg 56%
    12:00 +34°C° 0 mm 6 m/S 756 mmHg 53%
    13:00 +35°C° 0 mm 6 m/S 756 mmHg 50%
    14:00 +34°C° 0 mm 7 m/S 755 mmHg 54%
    15:00 +33°C° 0 mm 7 m/S 755 mmHg 58%
    16:00 +33°C° 0 mm 7 m/S 754 mmHg 62%
    17:00 +30°C° 0 mm 6 m/S 755 mmHg 71%
    18:00 +28°C° 0 mm 6 m/S 755 mmHg 80%
    19:00 +26°C° 0 mm 5 m/S 755 mmHg 89%
    20:00 +25°C° 0 mm 5 m/S 756 mmHg 91%
    21:00 +25°C° 0 mm 5 m/S 756 mmHg 93%
    22:00 +25°C° 0 mm 5 m/S 757 mmHg 94%
    23:00 +23°C° 0 mm 4 m/S 757 mmHg 94%
    Mehr zeigen